2025-155P (64889 NORAD) Tracking and Keplerian Element Data

This shows tracking and keplerian element data for the satellite.

Feedback or suggestion? Click here.




ElementValue
Catalog64889
Name2025-155P
Epoch Orbit5342
Epoch Day354.19676491
Epoch Year2025
RAAN317.7991
Inclination97.4369
Eccentricity0.00096
Argument of Perigee87.8183
Mean Anonmoly272.4154
Mean Motion15.24249261
Decay Rate4.385E-05
L11 64889U 25155P 25354.19676491 .00004385 00000+0 18248-3 0 9990
L22 64889 97.4369 317.7991 0009600 87.8183 272.4154 15.24249261 53427



Live tracking and technical data element details for 2025-155P (NORAD 64889). 2025-155P can be tracked NOW for your location showing map with azimuth and elevation plus other details from your city location.







IsCatalogInMostPopularTable: catalog: 64889, numindb: 7
Update: records affected: 1



GetName: 64889 2025-155P

Hit Count: updated at: Wed, 15 Apr 2026 01:22:12 GMT